Powrót do katalogu

STARLINK-33548

AktywnyŁącznośćVLEO
NORAD 62280·PAYLOAD·🇺🇸 United States

Wystrzelony Dec 8, 2024 z Cape Canaveral Space Force Station

Loading…

Następne Przeloty (najbliższe 24 godziny)

TLE

ŚwieżeSource: CelesTrak SupGP

Epoka: Sep 15, 2026, 02:58 UTC

1 62280C 24237P   26258.12409722 -.00056733  00000+0 -20541-2 0  2583
2 62280  43.0011 215.6814 0001519 266.9816 284.3695 15.27619235    19

Śledź STARLINK-33548 w czasie rzeczywistym z AllMySat

Download on the App Store